Date,TemperatureHighF,TemperatureAvgF,TemperatureLowF,DewpointHighF,DewpointAvgF,DewpointLowF,HumidityHigh,HumidityAvg,HumidityLow,PressureMaxIn,PressureMinIn,WindSpeedMaxMPH,WindSpeedAvgMPH,GustSpeedMaxMPH,PrecipitationSumIn
2013-1-1,30,24,20,28,20,14,92,84,77,30.15,30.04,12,2,14,0.00
2013-1-2,21,19,10,18,14,8,91,82,77,30.30,30.12,9,3,11,0.00
2013-1-3,28,21,11,23,16,9,91,82,70,30.29,30.15,15,4,18,0.00
2013-1-4,31,26,24,23,19,16,87,74,59,30.27,30.12,22,8,25,0.00
2013-1-5,33,28,24,26,22,19,88,79,70,30.41,30.16,15,4,17,0.00
2013-1-6,35,32,31,31,29,26,94,86,74,30.26,29.99,15,5,19,0.00
2013-1-7,34,30,25,30,26,21,95,86,68,30.48,30.26,10,1,12,0.02
2013-1-8,41,31,24,27,23,21,89,75,48,30.38,30.28,10,2,11,0.09
2013-1-9,47,38,29,37,30,24,86,72,54,30.51,30.19,20,5,22,0.03
2013-1-10,39,34,26,31,27,24,95,79,66,30.65,30.31,10,2,11,0.01
2013-1-11,50,43,37,48,38,27,97,83,61,30.31,29.89,13,4,16,0.40
2013-1-12,58,51,44,53,49,43,98,93,81,30.06,29.91,12,2,13,0.04
2013-1-13,63,53,37,57,51,36,97,91,80,29.97,29.77,19,4,26,0.17
2013-1-14,37,28,26,36,24,20,96,85,75,30.48,29.97,17,4,26,0.01
2013-1-15,31,27,26,22,21,19,83,78,63,30.48,30.17,8,2,9,0.00
2013-1-16,33,30,26,26,22,20,86,75,63,30.18,29.93,17,3,17,0.00
2013-1-17,33,31,23,28,25,16,87,80,71,30.28,30.03,18,4,20,0.00
2013-1-18,34,24,17,19,14,7,80,66,53,30.54,30.16,20,5,23,0.00
2013-1-19,49,42,34,30,25,19,59,51,42,30.17,29.71,25,8,26,0.00
2013-1-20,46,27,19,33,18,10,84,68,53,30.19,29.67,30,9,37,0.00
2013-1-21,20,16,9,14,10,6,89,79,60,30.17,29.99,18,5,19,0.00
2013-1-22,9,6,4,6,3,1,88,88,87,30.35,30.12,14,4,14,0.00
2013-1-23,12,8,5,9,5,3,89,88,88,30.36,30.17,11,2,12,0.00
2013-1-24,18,11,3,13,8,-1,91,85,75,30.65,30.16,14,2,17,0.04
2013-1-25,15,12,8,12,9,4,90,86,82,30.61,30.13,9,2,10,0.00
2013-1-26,24,19,13,21,16,11,93,90,87,30.52,30.16,10,2,12,0.00
2013-1-27,27,20,8,24,15,5,93,81,69,30.61,30.35,12,3,14,0.03
2013-1-28,46,38,25,45,36,24,98,96,92,30.36,29.99,16,5,19,0.47
2013-1-29,57,47,36,53,46,36,98,96,82,30.10,29.70,12,2,16,0.10
2013-1-30,60,55,36,54,50,32,95,86,75,29.70,29.14,24,6,33,0.43
2013-1-31,36,24,18,32,19,11,93,82,68,29.89,29.22,28,10,33,0.02
2013-2-1,17,14,11,14,10,6,91,87,79,30.37,29.88,18,6,18,0.00
2013-2-2,20,15,10,18,12,5,92,87,80,30.37,30.05,11,2,11,0.00
2013-2-3,20,17,16,17,14,11,93,86,72,30.06,29.92,13,4,15,0.00
2013-2-4,23,19,14,20,15,9,94,87,79,30.11,29.96,13,2,14,0.02
2013-2-5,28,22,18,22,19,17,94,86,68,30.00,29.91,10,1,10,0.01
2013-2-6,29,23,15,24,16,11,93,76,52,30.41,30.00,16,2,16,0.05
2013-2-7,41,29,16,27,20,11,81,69,53,30.39,29.97,12,3,15,0.06
2013-2-8,35,28,19,34,25,16,96,89,79,30.28,29.80,19,6,21,0.23
2013-2-9,31,22,17,19,17,14,91,81,57,30.50,30.28,17,2,17,0.03
2013-2-10,43,31,19,31,19,13,83,61,40,30.41,29.90,24,4,24,0.00
2013-2-11,50,39,32,43,32,24,96,77,57,29.92,29.68,29,8,31,0.00
2013-2-12,32,30,26,25,24,22,87,76,73,30.05,29.92,17,7,25,0.00
2013-2-13,27,25,23,23,22,21,91,88,84,29.89,29.82,5,1,6,0.00
2013-2-16,25,21,18,17,15,12,91,80,59,30.06,30.02,5,1,7,0.02
2013-2-17,19,15,5,17,10,2,91,81,63,30.33,30.01,14,3,17,0.00
2013-2-18,38,23,4,29,14,1,89,70,53,30.35,29.86,23,4,24,0.03
2013-2-19,43,30,15,37,26,12,93,86,65,29.97,29.64,23,8,29,0.23
2013-2-20,20,17,14,14,12,9,91,82,65,30.27,29.97,19,6,19,0.00
2013-2-21,20,17,14,16,13,10,90,83,75,30.45,30.26,13,3,15,0.00
2013-2-22,34,26,15,33,24,12,97,90,78,30.40,30.04,19,4,19,0.03
2013-2-23,34,31,27,32,27,23,96,83,71,30.05,29.93,11,2,13,0.02
2013-2-24,30,27,24,25,22,20,93,83,72,30.21,29.93,13,4,15,0.00
2013-2-25,38,28,17,27,22,15,95,79,53,30.30,30.15,8,2,10,0.01
2013-2-26,37,32,24,33,27,20,95,84,66,30.18,29.61,22,5,23,0.66
2013-2-27,40,36,32,37,34,30,97,93,85,29.68,29.57,13,4,18,0.15
2013-2-28,33,31,28,31,29,26,95,92,88,29.91,29.62,15,4,15,0.05
2013-3-1,28,25,23,26,22,20,91,88,80,30.07,29.90,12,3,14,0.00
2013-3-2,24,23,21,22,20,18,92,89,84,30.06,30.03,12,3,14,0.00
2013-3-3,24,22,20,21,19,17,93,89,80,30.10,30.02,13,4,16,0.00
2013-3-4,30,23,16,19,16,13,92,77,53,30.19,30.09,12,3,13,0.07
2013-3-5,36,25,15,27,20,12,93,82,61,30.19,29.80,12,3,14,0.01
2013-3-6,42,33,29,31,27,24,91,80,61,30.21,29.80,16,3,17,0.00
2013-3-7,37,32,27,32,29,24,94,90,79,30.40,30.20,11,4,13,0.00
2013-3-8,36,30,26,31,27,24,94,89,76,30.51,30.40,10,2,13,0.01
2013-3-9,50,37,23,34,28,21,96,73,48,30.50,30.19,10,3,12,0.02
2013-3-10,68,54,42,40,34,27,70,48,33,30.19,29.92,18,4,18,0.00
2013-3-11,58,52,42,48,40,34,93,66,41,29.94,29.60,19,5,21,0.63
2013-3-12,42,35,32,37,30,25,91,81,75,30.01,29.75,16,5,18,0.00
2013-3-13,31,28,24,26,23,15,91,80,63,30.18,29.93,21,6,22,0.00
2013-3-14,31,27,23,20,18,14,76,69,58,30.29,30.16,17,5,19,0.00
2013-3-15,40,33,28,32,27,20,95,80,70,30.16,29.91,15,4,17,0.00
2013-3-16,32,29,26,30,27,23,96,94,88,30.07,29.74,12,2,12,0.01
2013-3-17,30,27,22,25,21,16,93,79,63,30.31,30.07,10,2,11,0.14
2013-3-18,36,30,22,35,27,16,97,88,75,30.27,29.70,21,6,23,0.29
2013-3-19,38,29,24,37,23,17,97,78,66,29.98,29.74,25,8,26,0.15
2013-3-20,28,26,21,22,18,16,90,73,61,30.00,29.94,19,6,21,0.00
2013-3-21,26,21,16,24,18,13,93,89,81,29.95,29.90,17,5,21,0.01
2013-3-22,30,25,19,24,21,16,94,84,70,30.08,29.94,15,4,16,0.01
2013-3-23,36,26,16,25,21,14,93,80,63,30.15,30.06,10,2,10,0.09
2013-3-24,33,27,21,25,22,18,94,80,61,30.12,29.61,14,3,21,0.00
2013-3-25,33,31,29,32,29,24,96,92,74,29.86,29.54,13,4,14,0.18
2013-3-26,36,32,30,32,30,28,96,92,82,30.13,29.86,13,4,13,0.08
2013-3-27,39,33,30,31,29,26,96,84,62,30.21,30.11,17,5,19,0.06
2013-3-28,39,34,32,32,30,29,95,86,73,30.32,30.19,11,2,13,0.08
2013-3-29,45,39,32,30,28,23,84,65,46,30.31,30.25,14,3,15,0.00
2013-3-30,53,41,29,30,24,20,76,53,32,30.29,30.04,11,2,12,0.00
2013-3-31,50,45,40,45,33,23,92,66,45,30.04,29.70,16,3,20,0.04
2013-4-1,45,34,28,40,23,13,89,66,43,30.10,29.68,17,6,20,0.00
2013-4-2,35,29,24,20,16,11,77,59,40,30.25,30.10,19,5,21,0.00
2013-4-3,33,28,22,21,16,13,74,61,46,30.51,30.25,17,3,21,0.00
2013-4-4,54,36,22,22,15,9,76,47,18,30.46,30.01,11,2,13,0.00
2013-4-5,42,37,28,30,23,14,77,57,35,30.25,29.96,13,4,16,0.00
2013-4-6,52,38,24,23,17,13,73,47,21,30.34,29.99,14,3,17,0.00
2013-4-7,68,54,40,46,35,16,81,50,26,30.05,29.81,25,6,25,0.00
2013-4-8,69,53,35,54,43,32,91,70,48,30.08,29.85,21,4,25,0.00
2013-4-9,75,59,44,56,48,41,91,69,47,30.13,29.86,16,4,21,0.00
2013-4-10,69,53,40,65,49,38,97,88,71,29.97,29.78,13,2,17,0.56
2013-4-11,42,40,37,41,39,36,98,97,96,29.98,29.65,14,3,15,0.21
2013-4-12,54,44,38,54,41,32,98,90,77,29.87,29.51,21,5,21,0.32
2013-4-13,42,38,35,37,33,29,92,82,68,30.06,29.86,20,5,20,0.08
2013-4-14,49,40,31,37,33,28,88,74,60,30.19,30.05,10,2,12,0.00
2013-4-15,69,58,43,51,44,35,76,62,50,30.10,30.00,18,4,20,0.00
2013-4-16,66,55,48,59,50,46,96,85,76,30.22,29.98,15,4,17,0.10
2013-4-17,61,51,43,48,39,32,96,67,46,30.33,30.10,14,3,15,0.00
2013-4-18,83,68,52,62,56,40,91,67,39,30.11,29.69,22,5,25,0.00
2013-4-19,68,52,38,59,44,28,94,74,61,29.83,29.38,24,7,26,0.38
2013-4-20,39,34,30,31,27,22,93,75,55,30.47,29.83,20,6,22,0.07
2013-4-21,46,36,27,30,26,23,90,68,42,30.69,30.47,13,2,14,0.00
2013-4-22,61,48,32,39,30,24,77,53,36,30.55,30.28,15,3,18,0.00
2013-4-23,70,56,41,41,35,26,70,48,31,30.29,29.92,17,4,22,0.00
2013-4-24,62,46,34,54,42,33,96,86,45,30.17,29.70,19,4,21,0.51
2013-4-25,50,40,32,38,33,29,95,79,47,30.40,30.17,18,4,21,0.07
2013-4-26,57,44,30,36,32,27,94,67,32,30.54,30.40,9,2,13,0.00
2013-4-27,70,55,37,40,33,29,79,47,24,30.45,30.15,14,2,14,0.00
2013-4-28,57,53,50,52,46,35,97,78,45,30.16,29.92,15,4,20,0.31
2013-4-29,62,56,51,57,53,50,97,91,76,30.02,29.91,12,2,14,0.06
2013-4-30,72,61,52,58,53,51,98,78,50,30.16,30.02,15,4,19,0.00
2013-5-1,76,64,52,56,51,45,89,65,43,30.29,30.15,15,4,15,0.00
2013-5-2,75,65,53,50,38,25,53,39,17,30.35,30.19,15,4,18,0.00
2013-5-3,74,64,54,44,39,31,59,41,24,30.23,30.13,25,6,25,0.00
2013-5-4,70,60,50,44,40,34,73,49,29,30.19,30.09,18,5,19,0.00
2013-5-5,59,54,49,44,42,40,74,64,55,30.15,30.13,16,3,19,0.00
2013-5-20,76,74,72,67,67,66,84,79,75,29.91,29.89,6,2,7,5.23
2013-5-21,84,75,68,70,66,64,94,75,53,29.90,29.76,12,3,16,5.23
2013-5-22,83,75,66,64,62,59,88,67,48,29.81,29.68,19,3,22,0.13
2013-5-23,70,59,42,62,56,41,96,90,70,30.00,29.72,13,3,19,0.33
2013-5-24,43,40,32,41,35,30,95,83,71,30.35,30.00,17,4,18,0.05
2013-5-25,56,45,31,40,35,30,96,71,44,30.42,30.30,18,3,20,0.00
2013-5-26,61,49,37,42,36,32,95,66,36,30.36,30.28,13,2,13,0.00
2013-5-27,63,51,37,48,41,36,96,72,41,30.31,30.12,9,2,11,0.06
2013-5-28,76,62,50,69,59,48,97,90,71,30.13,29.89,25,2,25,1.16
2013-5-29,83,75,68,68,64,60,89,69,55,30.03,29.92,14,3,17,0.03
2013-5-30,86,76,66,69,64,59,84,67,44,30.14,30.03,13,2,16,0.00
2013-5-31,85,73,64,70,64,61,96,76,50,30.06,29.94,16,3,16,0.29
2013-6-1,82,72,65,70,66,63,96,83,65,29.96,29.74,17,4,21,0.30
2013-6-2,73,67,56,65,60,52,97,81,62,29.93,29.73,20,4,20,0.36
2013-6-3,59,53,43,52,45,37,93,75,47,30.12,29.93,12,2,12,0.00
2013-6-4,65,54,42,52,44,40,94,71,46,30.22,30.12,9,2,10,0.00
2013-6-5,72,59,46,56,48,43,90,68,45,30.20,29.97,11,2,14,0.00
2013-6-6,63,57,52,62,56,50,98,95,79,29.97,29.81,9,1,10,1.02
2013-6-7,58,54,52,56,54,52,98,97,91,29.92,29.85,9,1,9,0.01
2013-6-8,67,58,51,56,54,50,98,86,66,30.13,29.91,7,1,10,0.00
2013-6-9,75,63,50,63,57,49,97,81,57,30.19,30.01,9,2,11,0.00
2013-6-10,71,66,62,68,64,59,98,94,75,30.01,29.74,11,2,14,0.59
2013-6-11,72,65,62,64,62,61,98,90,73,29.89,29.76,13,3,14,0.02
2013-6-12,75,69,59,69,65,58,98,87,74,29.92,29.72,6,1,8,0.04
2013-6-13,68,62,57,66,60,55,98,93,73,29.85,29.42,19,4,22,0.36
2013-6-14,67,60,54,60,56,51,97,87,69,30.09,29.85,11,2,13,0.00
2013-6-15,77,63,47,60,53,45,96,72,45,30.15,30.00,7,1,9,0.01
2013-6-16,77,69,63,67,63,57,95,81,67,30.02,29.81,16,4,18,0.03
2013-6-17,80,70,60,65,61,57,97,77,48,29.97,29.88,13,2,15,0.10
2013-6-18,71,62,54,63,57,47,96,82,64,30.04,29.87,13,2,15,0.10
2013-6-19,69,60,49,54,49,47,96,70,49,30.20,30.04,13,1,15,0.00
2013-6-20,76,63,49,58,50,43,88,65,34,30.25,30.19,8,1,12,0.00
2013-6-21,83,69,53,64,56,45,80,64,46,30.28,30.15,8,1,9,0.00
2013-6-22,86,77,66,71,65,58,84,67,56,30.17,30.01,11,2,13,0.00
2013-6-23,87,78,67,72,68,64,94,73,49,30.10,30.01,14,2,14,0.00
2013-6-24,86,77,68,69,65,61,82,68,50,30.09,29.96,13,2,13,0.00
2013-6-25,86,73,65,72,67,62,96,81,58,29.99,29.84,14,2,19,0.49
2013-6-26,82,72,65,70,67,64,97,85,65,29.92,29.78,9,2,12,0.58
2013-6-27,77,70,66,69,66,64,97,91,67,29.79,29.65,11,1,13,0.19
2013-6-28,76,69,63,68,64,61,98,86,71,29.66,29.50,12,2,14,0.01
2013-6-29,72,66,61,67,63,60,98,91,76,29.71,29.51,7,1,10,0.57
2013-6-30,72,66,60,68,62,60,98,89,76,29.90,29.71,10,1,11,0.00
2013-7-1,70,65,62,67,63,61,97,93,88,30.02,29.87,11,1,11,0.00
2013-7-2,80,68,61,70,64,60,98,88,67,30.07,29.96,8,1,9,0.00
2013-7-3,84,72,62,73,67,62,98,86,62,30.14,30.06,13,1,24,0.18
2013-7-4,78,72,68,71,68,66,97,88,71,30.17,30.11,11,2,11,0.01
2013-7-5,78,71,67,70,68,66,98,90,77,30.14,30.09,11,1,12,0.33
2013-7-6,83,73,67,72,69,65,97,88,68,30.16,30.01,7,2,12,0.05
2013-7-7,78,72,67,69,67,63,95,85,70,30.07,29.98,11,2,12,0.05
2013-7-8,82,71,64,72,66,62,98,85,63,30.09,30.01,12,2,14,0.56
2013-7-9,84,74,67,76,70,66,98,90,73,30.06,29.91,11,2,12,0.64
2013-7-10,84,72,67,76,69,65,98,92,73,29.94,29.75,17,2,21,1.67
2013-7-11,72,67,60,66,60,55,96,78,57,30.04,29.90,12,2,12,0.00
2013-7-12,76,68,58,66,62,57,98,83,58,30.14,30.03,10,1,12,0.00
2013-7-13,80,69,57,70,64,56,98,84,64,30.24,30.13,12,1,12,0.01
2013-7-14,86,75,64,75,69,63,98,83,61,30.28,30.22,8,1,9,0.00
2013-7-15,88,79,72,76,72,69,95,80,63,30.31,30.23,9,1,9,0.00
2013-7-16,87,79,71,77,73,70,97,83,67,30.30,30.22,8,1,11,0.00
2013-7-17,88,80,72,76,73,71,96,80,59,30.27,30.14,9,2,10,0.00
2013-7-18,89,81,74,78,73,71,95,78,56,30.15,29.98,10,2,11,0.00
2013-7-19,89,81,68,76,72,66,92,77,58,29.99,29.78,15,3,18,0.07
2013-7-20,77,70,66,72,67,64,98,92,80,29.92,29.75,14,2,16,2.49
2013-7-21,82,71,63,71,66,61,98,84,62,29.98,29.91,8,1,10,0.01
2013-7-22,76,68,61,71,65,59,97,91,81,29.97,29.77,7,1,7,0.03
2013-7-23,79,70,64,71,66,59,98,88,66,29.79,29.65,11,2,14,0.15
2013-7-24,65,61,52,59,54,50,94,78,64,30.06,29.80,12,2,15,0.01
2013-7-25,72,60,49,56,52,47,96,75,51,30.13,30.05,11,2,14,0.01
2013-7-26,78,65,52,62,56,50,96,73,45,30.12,29.98,8,1,9,0.00
2013-7-27,68,64,59,66,61,56,96,89,73,29.99,29.81,11,1,11,0.25
2013-7-28,68,62,56,61,54,48,96,78,52,30.02,29.84,12,2,17,0.03
2013-7-29,68,61,55,59,54,50,96,80,58,30.21,30.02,10,2,11,0.01
2013-7-30,74,64,55,63,58,53,97,83,59,30.26,30.17,7,1,9,0.01
2013-7-31,75,67,57,65,61,55,95,82,67,30.18,29.93,8,1,13,0.00
2013-8-1,74,68,62,66,63,59,97,86,68,29.93,29.83,10,3,12,0.31
2013-8-2,73,66,59,64,59,56,96,81,58,29.97,29.88,15,2,15,0.05
2013-8-3,74,68,57,65,60,52,97,79,49,30.00,29.90,10,2,12,0.12
2013-8-4,68,62,56,59,56,50,96,82,66,30.14,30.00,11,2,12,0.01
2013-8-5,70,60,48,60,53,47,97,79,52,30.16,30.04,8,1,9,0.01
2013-8-6,76,66,55,62,58,53,94,76,56,30.05,29.97,11,1,11,0.00
2013-8-7,77,69,62,69,64,58,96,86,72,29.97,29.87,9,1,13,0.37
2013-8-8,77,72,68,74,70,66,98,94,86,29.96,29.91,9,1,11,1.10
2013-8-9,74,68,61,68,62,53,98,84,55,30.02,29.90,9,2,11,0.23
2013-8-10,74,66,60,63,58,54,95,76,58,30.14,30.01,8,1,11,0.00
2013-8-11,77,66,57,65,59,55,95,77,55,30.16,30.05,9,1,10,0.00
2013-8-12,72,66,59,66,62,57,95,87,74,30.08,29.85,7,1,7,0.05
2013-8-13,69,63,50,66,58,47,97,86,66,29.99,29.80,13,3,16,0.23
2013-8-14,66,57,50,55,51,47,94,81,59,30.18,29.99,12,2,14,0.01
2013-8-15,70,59,48,57,52,47,97,80,54,30.22,30.14,7,1,10,0.01
2013-8-16,72,60,48,60,54,47,97,81,55,30.23,30.16,7,1,8,0.01
2013-8-17,75,64,53,63,57,51,96,79,54,30.28,30.22,8,2,10,0.00
2013-8-18,75,64,54,65,60,53,98,86,66,30.25,30.14,9,1,9,0.01
2013-8-19,76,67,58,67,62,56,98,85,58,30.16,30.08,8,1,9,0.00
2013-8-20,81,70,58,66,61,55,92,74,52,30.19,30.10,7,1,9,0.00
2013-8-21,83,73,63,67,63,59,91,73,50,30.19,30.04,7,1,9,0.00
2013-8-22,81,72,65,70,66,63,94,83,63,30.07,29.97,12,2,13,0.00
2013-8-23,77,70,57,67,60,50,95,73,43,30.19,30.00,10,1,14,0.00
2013-8-24,77,64,51,62,56,50,97,78,42,30.35,30.19,9,1,10,0.01
2013-8-25,83,69,54,64,59,52,96,73,47,30.36,30.21,9,1,9,0.00
2013-8-26,84,73,66,68,63,58,94,72,50,30.22,29.99,11,2,16,0.13
2013-8-27,81,74,68,72,70,67,97,88,70,29.99,29.90,13,2,15,0.60
2013-8-28,75,71,69,73,70,68,98,96,87,29.97,29.81,9,2,11,0.88
2013-8-29,83,72,66,73,68,63,98,87,59,30.07,29.96,9,1,10,0.01
2013-8-30,85,74,64,71,67,63,98,81,57,30.03,29.78,8,1,11,0.01
2013-8-31,80,73,67,73,69,65,96,86,75,29.84,29.73,9,2,11,0.00
2013-9-1,79,70,64,72,68,64,98,94,76,29.83,29.75,8,1,10,0.21
2013-9-2,77,69,62,71,67,60,98,92,78,29.85,29.73,12,2,12,0.04
2013-9-3,65,60,56,60,56,53,92,86,76,30.05,29.85,9,2,11,0.00
2013-9-4,75,64,54,62,56,52,95,79,52,30.12,30.04,10,2,12,0.01
2013-9-5,66,62,52,62,54,48,94,76,56,30.25,30.05,11,2,14,0.00
2013-9-6,70,57,44,54,47,41,95,74,37,30.31,30.14,7,1,7,0.00
2013-9-7,78,66,51,66,56,45,95,73,54,30.14,29.93,9,1,11,0.00
2013-9-8,70,65,52,66,60,49,97,84,65,30.09,29.89,13,1,14,0.00
2013-9-9,75,63,50,70,59,48,95,89,81,30.11,30.01,8,2,9,0.00
2013-9-10,92,80,70,77,72,68,94,77,51,30.06,29.99,12,3,13,0.00
2013-9-11,89,80,71,74,72,67,92,78,53,30.08,29.94,11,2,11,0.00
2013-9-12,71,67,58,68,64,57,96,91,78,29.97,29.81,13,1,14,0.36
2013-9-13,59,54,50,58,51,46,96,90,75,30.09,29.85,14,2,14,0.97
2013-9-14,62,52,45,50,46,42,96,78,58,30.20,30.09,7,1,11,0.00
2013-9-15,66,56,45,55,50,43,96,81,59,30.20,30.09,8,1,9,0.04
2013-9-16,62,55,49,57,52,47,97,90,79,30.37,30.12,12,1,13,0.07
2013-9-17,66,51,39,50,43,38,97,79,43,30.45,30.30,10,2,11,0.01
2013-9-18,72,58,46,58,50,42,92,77,57,30.30,30.12,8,1,11,0.00
2013-9-19,72,64,56,66,61,54,98,93,79,30.13,30.01,10,2,11,0.00
2013-9-20,77,68,62,72,66,61,99,94,83,30.04,29.78,12,2,14,0.25
2013-9-21,67,61,52,66,59,51,98,95,79,29.81,29.66,10,1,12,1.44
2013-9-22,55,52,47,54,48,44,97,87,70,30.08,29.81,9,2,11,0.06
2013-9-23,55,49,40,47,45,39,96,87,71,30.21,30.07,5,0,5,0.00
2013-9-24,66,50,38,54,46,38,98,86,63,30.19,30.03,9,1,10,0.01
2013-9-25,68,54,43,57,49,42,98,84,56,30.05,29.96,9,1,10,0.02
2013-9-26,69,56,45,55,49,44,98,80,43,30.16,30.01,9,1,10,0.00
2013-9-27,68,57,46,57,52,45,98,84,60,30.25,30.15,13,1,13,0.01
2013-9-28,72,59,49,59,53,48,98,82,55,30.27,30.14,10,2,13,0.01
2013-9-29,69,60,49,61,55,47,95,86,74,30.14,30.01,8,2,10,0.01
2013-9-30,63,60,58,62,59,56,97,95,90,30.03,29.98,7,1,8,0.09
2013-10-1,75,64,56,63,59,56,98,86,62,30.09,29.99,10,2,11,0.01
2013-10-2,75,64,53,66,60,52,96,88,64,30.10,30.01,9,2,10,0.00
2013-10-3,78,64,54,69,61,53,97,90,69,30.10,30.01,8,2,10,0.44
2013-10-4,77,68,64,69,65,63,97,89,72,30.06,30.02,13,2,13,0.05
2013-10-5,76,68,61,69,66,60,98,93,74,30.07,29.95,8,1,8,0.12
2013-10-6,78,70,56,68,66,54,98,87,69,29.96,29.70,23,3,23,0.07
2013-10-7,56,52,46,54,47,42,97,84,65,30.15,29.70,16,3,16,0.87
2013-10-8,64,52,44,51,45,41,97,79,45,30.35,30.15,9,1,10,0.01
2013-10-9,67,52,41,49,44,40,95,77,41,30.38,30.27,12,2,13,0.00
2013-10-10,68,53,41,53,45,38,96,76,47,30.28,30.15,7,1,10,0.00
2013-10-11,72,56,44,55,48,42,97,76,44,30.17,30.09,8,1,10,0.01
2013-10-12,74,61,48,63,53,41,91,75,62,30.17,30.09,10,1,10,0.00
2013-10-13,66,61,57,61,58,54,96,91,82,30.31,30.15,8,1,10,0.06
2013-10-14,61,54,45,54,47,42,91,80,61,30.39,30.29,11,1,13,0.00
2013-10-15,62,54,42,59,52,40,97,92,87,30.29,29.97,10,2,11,0.01
2013-10-16,67,59,49,62,57,46,97,92,84,29.98,29.80,10,2,16,0.70
2013-10-17,59,49,44,49,46,42,96,89,67,29.93,29.78,11,2,14,0.21
2013-10-18,60,51,42,46,44,40,94,78,54,30.01,29.87,15,3,16,0.05
2013-10-19,51,46,40,46,42,38,95,89,76,29.95,29.75,11,2,14,0.27
2013-10-20,56,46,37,42,38,35,92,77,51,30.02,29.91,15,3,15,0.15
2013-10-21,62,52,45,50,42,39,95,69,46,30.01,29.85,14,3,17,0.11
2013-10-22,48,42,37,47,35,29,95,76,50,29.97,29.85,13,3,14,0.25
2013-10-23,45,39,35,39,33,30,95,81,63,29.94,29.81,14,2,15,0.09
2013-10-24,34,33,32,33,32,31,96,94,92,30.19,30.11,8,2,11,0.52
2013-10-25,44,36,32,38,33,29,97,86,66,30.37,30.19,15,2,15,0.61
2013-10-26,43,39,34,36,30,26,94,70,58,30.25,29.89,20,5,26,0.06
2013-10-27,47,39,33,38,34,32,96,83,58,30.13,30.00,9,1,11,0.07
2013-10-28,53,42,35,43,36,31,92,80,62,30.39,30.12,9,1,10,0.00
2013-10-29,54,43,32,39,35,29,90,75,53,30.46,30.30,9,1,10,0.00
2013-10-30,63,50,36,51,42,33,92,73,50,30.30,30.08,11,1,11,0.00
2013-10-31,65,59,54,59,56,50,97,90,76,30.08,29.33,22,4,26,0.46
2013-11-1,60,52,45,58,46,41,94,81,72,29.71,29.25,19,5,31,0.27
2013-11-2,47,44,40,44,42,38,95,92,85,30.05,29.68,10,2,15,0.68
2013-11-3,43,36,27,38,31,24,95,83,65,30.54,30.05,11,1,12,0.17
2013-11-4,42,34,26,25,22,18,87,65,41,30.63,30.47,17,4,17,0.00
2013-11-5,54,46,37,41,34,24,74,64,58,30.51,30.32,10,3,12,0.00
2013-11-6,64,53,42,56,44,33,94,74,60,30.32,29.90,16,4,20,0.20
2013-11-7,51,40,34,49,35,28,95,84,66,30.14,29.92,16,4,18,0.46
2013-11-8,39,35,31,33,29,25,96,78,62,30.33,30.10,17,3,17,0.29
2013-11-9,55,43,31,42,33,25,85,67,47,30.31,29.93,18,4,22,0.00
2013-11-10,52,43,37,41,33,28,77,68,57,30.29,29.94,26,7,28,0.00
2013-11-11,45,37,29,37,31,27,95,80,59,30.28,30.06,16,4,16,0.01
2013-11-12,33,29,27,29,24,16,95,81,63,30.54,30.23,14,3,16,0.00
2013-11-13,36,30,26,22,20,16,80,66,51,30.57,30.31,17,4,19,0.00
2013-11-14,47,38,29,24,21,18,70,52,38,30.32,30.15,17,5,18,0.00
2013-11-15,50,44,36,31,25,20,61,47,36,30.18,30.11,14,4,18,0.00
2013-11-16,57,48,35,49,41,30,89,78,61,30.24,29.98,14,3,15,0.00
2013-11-17,60,56,50,56,52,40,95,87,59,29.98,29.42,33,6,34,0.02
2013-11-18,50,42,34,40,34,25,79,74,67,30.12,29.55,25,8,37,0.02
2013-11-19,35,33,26,27,25,23,88,74,65,30.48,30.12,13,3,14,0.00
2013-11-20,44,34,24,24,20,14,91,61,33,30.54,30.40,14,3,17,0.00
2013-11-21,41,37,34,38,29,15,95,77,44,30.45,30.26,11,3,14,0.00
2013-11-22,47,42,33,46,40,28,97,94,82,30.34,30.14,18,3,18,0.00
2013-11-23,33,27,18,28,20,6,92,73,57,30.43,30.23,25,6,26,0.00
2013-11-24,21,19,16,15,12,8,89,73,61,30.60,30.43,17,5,22,0.00
2013-11-25,32,23,12,24,14,9,89,71,47,30.54,30.24,20,4,20,0.00
2013-11-26,32,30,29,29,27,20,96,87,61,30.24,29.87,11,2,13,0.00
2013-11-27,31,26,22,30,22,16,96,85,73,30.17,29.83,16,5,19,0.00
2013-11-28,26,23,18,20,17,14,87,79,70,30.49,30.17,10,3,14,0.00
2013-11-29,31,26,18,22,20,15,92,78,60,30.73,30.48,6,1,8,0.00
2013-11-30,37,28,22,26,22,18,86,78,62,30.69,30.25,15,3,15,0.00
2013-12-1,40,35,27,31,28,23,89,77,68,30.25,30.02,10,2,11,0.00
2013-12-2,38,34,29,34,31,27,95,88,77,30.02,29.91,7,1,7,0.00
2013-12-3,42,35,28,37,31,26,94,85,76,29.99,29.94,7,2,7,0.00
2013-12-4,54,47,39,48,42,36,91,84,77,30.01,29.83,14,3,14,0.00
2013-12-5,61,48,32,56,44,30,94,85,79,30.11,29.78,16,4,19,0.00
2013-12-6,33,29,24,30,26,21,95,87,76,30.37,30.09,11,2,14,0.00
2013-12-7,25,22,19,22,17,13,91,80,71,30.66,30.38,10,3,11,0.00
2013-12-8,26,22,17,24,17,14,91,81,70,30.66,30.12,16,3,19,0.00
2013-12-9,32,29,23,31,25,17,96,86,75,30.18,29.99,19,6,20,0.00
2013-12-10,25,22,19,17,13,6,81,68,47,30.28,30.03,20,6,23,0.00
2013-12-11,22,19,15,19,14,8,92,82,73,30.45,30.28,15,4,20,0.00
2013-12-12,16,14,10,9,5,0,88,68,49,30.50,30.28,18,5,21,0.00
2013-12-13,28,21,15,18,13,4,84,72,61,30.35,30.26,14,3,15,0.00
2013-12-14,31,26,22,30,24,18,97,93,83,30.35,29.71,8,2,12,0.00
2013-12-15,31,20,13,30,17,10,96,89,83,30.08,29.71,17,6,19,0.00
2013-12-16,19,15,12,16,12,10,90,87,80,30.24,30.07,10,3,13,0.00
2013-12-17,26,22,15,24,19,13,95,89,80,30.11,29.99,15,4,17,0.00
2013-12-18,27,24,22,22,20,16,91,83,71,30.21,30.06,16,5,18,0.00
2013-12-19,45,38,27,34,28,18,76,67,56,30.10,30.01,15,4,18,0.00
2013-12-20,53,45,41,52,42,33,97,87,67,30.01,29.83,18,4,18,0.00
2013-12-21,55,47,37,54,46,36,98,96,92,29.84,29.56,16,3,16,0.00
2013-12-22,61,46,35,56,44,34,99,92,71,30.01,29.47,25,5,25,0.00
2013-12-23,37,31,26,36,28,19,96,87,74,30.35,30.00,14,5,17,0.00
2013-12-24,26,18,11,21,14,8,91,85,74,30.59,30.31,14,4,22,0.00
2013-12-25,25,18,11,20,13,8,91,81,67,30.58,30.25,12,2,13,0.00
2013-12-26,29,26,20,26,21,16,94,84,70,30.39,30.15,16,4,19,0.00
2013-12-27,39,32,23,30,26,18,83,77,68,30.40,30.23,13,3,14,0.00
2013-12-28,51,42,36,35,31,28,75,66,53,30.23,30.02,16,5,22,0.00
2013-12-29,42,38,25,38,31,23,94,76,54,30.02,29.72,14,3,19,0.01
2013-12-30,25,17,12,23,14,10,93,89,82,30.30,29.95,11,2,14,0.00
2013-12-31,19,17,14,17,13,9,91,87,78,30.38,30.12,15,4,20,0.00
2014-1-1,20,18,16,17,15,14,92,90,87,30.44,30.22,7,2,8,0.00
2014-1-2,18,14,8,16,12,6,91,90,89,30.22,29.92,21,4,24,0.00